Regional Weather Roundup
Issued by NWS

Home | Current Version | Previous Version | Text Only | Print | Product List | Glossary Off
Versions: 1 2 3 4 5 6 7 8 9 10 11 12 13 14 15 16 17 18 19 20 21 22 23 24 25 26 27 28 29 30 31 32 33 34 35 36 37 38 39 40 41 42 43 44 45 46 47 48 49 50

000
ASUS43 KLMK 012002
RWRKY
KENTUCKY REGIONAL WEATHER ROUNDUP
NATIONAL WEATHER SERVICE LOUISVILLE KY
300 PM EST SUN MAR 01 2015

NOTE "FAIR" INDICATES FEW OR NO CLOUDS BELOW 12,000 FEET
WITH NO SIGNIFICANT WEATHER AND/OR OBSTRUCTIONS TO VISIBILITY.

KYZ001>023-026-027-061>063-070>075-012100-
WESTERN AND SOUTH CENTRAL KENTUCKY

CITY           SKY/WX    TMP DP  RH WIND       PRES   REMARKS
PADUCAH        CLOUDY    40  31  70 W5        30.32S
HENDERSON      CLOUDY    36  28  75 W8        30.32S WCI  29
OWENSBORO      CLOUDY    37  33  85 NW7       30.32F WCI  31
HOPKINSVILLE   CLOUDY    44  44  97 S6        30.30F FOG
BOWLING GREEN  CLOUDY    48  44  86 SW7       30.30F
GLASGOW        NOT AVBL
$$

KYZ024-025-028>034-038-045-046-053-012100-
NORTH CENTRAL KENTUCKY

CITY           SKY/WX    TMP DP  RH WIND       PRES   REMARKS
LOUISVILLE/SDF CLOUDY    42  39  89 NW3       30.28F FOG
LOUISVILLE/LOU CLOUDY    40  37  89 NW3       30.29F FOG
FORT KNOX      CLOUDY    42  40  94 SW8       30.27R FOG
$$

KYZ035>037-039>044-047>052-055>060-089>105-012100-
NORTHEAST KENTUCKY

CITY           SKY/WX    TMP DP  RH WIND       PRES   REMARKS
LEXINGTON      LGT RAIN  40  39  97 SW13      30.27F FOG     WCI  32
COVINGTON      FOG       33  31  92 W3        30.27R VSB 1/2
FRANKFORT      CLOUDY    42  39  89 SW8       30.26F
$$

KYZ054-064>069-076>088-106>120-012100-
SOUTHEAST KENTUCKY

CITY           SKY/WX    TMP DP  RH WIND       PRES   REMARKS
JACKSON        LGT RAIN  39  36  89 SW3       30.28F
LONDON         LGT RAIN  49  41  74 S5        30.30F
SOMERSET       NOT AVBL
MIDDLESBORO    NOT AVBL
MONTICELLO     CLOUDY    51  49  93 SW5       30.33F FOG
$$




USA.gov is the U.S. government's official web portal to all federal, state and local government web resources and services.